DW7589 Weather Reports


time (UTC)temp
F
wind
direction
speed
knots
gust
knots
rain 1hr
in
rain 24hr
in
rain mn
in
humidity
%
barometer
mb
20260503001428 76 0 0.0 0.0 0.00 0.00 0.00 43 1019.1
20260503000430 76 0 0.0 0.9 0.00 0.00 0.00 41 1019.1
20260502235929 76 0 0.0 1.7 0.00 0.00 0.00 38 1019.1
20260502235431 76 0 0.0 1.7 0.00 0.00 0.00 43 1019.1
20260502234929 76 0 0.0 1.7 0.00 0.00 0.00 43 1019.0
20260502234428 76 0 0.0 1.7 0.00 0.00 0.00 42 1019.1
20260502233929 76 6 0.9 4.3 0.00 0.00 0.00 42 1019.1
20260502233429 76 5 0.9 4.3 0.00 0.00 0.00 40 1019.1
20260502232428 77 0 0.0 2.6 0.00 0.00 0.00 41 1019.1
20260502231429 77 0 0.0 3.5 0.00 0.00 0.00 39 1019.0
20260502230429 76 0 0.0 2.6 0.00 0.00 0.00 40 1019.0
20260502225929 76 0 0.0 2.6 0.00 0.00 0.00 41 1019.0
20260502225430 77 0 0.0 0.9 0.00 0.00 0.00 40 1019.0
20260502224930 77 0 0.0 3.5 0.00 0.00 0.00 42 1019.1
20260502224429 77 5 0.9 3.5 0.00 0.00 0.00 43 1019.1
20260502223429 77 5 0.9 3.5 0.00 0.00 0.00 42 1019.2
20260502222929 77 6 0.9 5.2 0.00 0.00 0.00 41 1019.2
20260502222430 77 8 0.9 5.2 0.00 0.00 0.00 41 1019.3
20260502221930 77 10 0.9 4.3 0.00 0.00 0.00 42 1019.2
20260502221429 77 17 0.9 4.3 0.00 0.00 0.00 40 1019.2
20260502220929 76 13 0.9 3.5 0.00 0.00 0.00 43 1019.3
20260502215929 76 350 0.9 7.8 0.00 0.00 0.00 50 1019.3
20260502215430 76 3 1.7 7.8 0.00 0.00 0.00 42 1019.3
20260502214931 77 10 0.9 6.1 0.00 0.00 0.00 39 1019.4
20260502214430 77 1 0.9 3.5 0.00 0.00 0.00 41 1019.5
20260502213929 77 4 0.9 4.3 0.00 0.00 0.00 44 1019.5
20260502213429 77 9 0.9 4.3 0.00 0.00 0.00 43 1019.6
20260502212430 77 1 1.7 5.2 0.00 0.00 0.00 43 1019.6
20260502211930 77 359 0.9 5.2 0.00 0.00 0.00 46 1019.7
20260502210929 77 11 0.9 7.8 0.00 0.00 0.00 43 1019.9
20260502210430 76 8 0.9 7.8 0.00 0.00 0.00 46 1019.9
20260502205929 76 2 1.7 9.6 0.00 0.00 0.00 44 1020.0
20260502205429 76 359 1.7 9.6 0.00 0.00 0.00 44 1020.0
20260502204929 76 358 0.9 7.0 0.00 0.00 0.00 43 1020.1
20260502204429 76 358 1.7 7.0 0.00 0.00 0.00 46 1020.1
20260502203429 76 24 0.9 5.2 0.00 0.00 0.00 43 1020.1
20260502202429 75 14 1.7 7.0 0.00 0.00 0.00 44 1020.3
20260502201929 76 5 1.7 7.0 0.00 0.00 0.00 42 1020.2
20260502201431 76 9 0.9 7.0 0.00 0.00 0.00 43 1020.3
20260502200930 76 26 0.9 8.7 0.00 0.00 0.00 47 1020.4
20260502200429 76 22 0.9 8.7 0.00 0.00 0.00 47 1020.4
20260502195429 76 356 1.7 10.4 0.00 0.00 0.00 47 1020.4
20260502194429 76 9 0.9 5.2 0.00 0.00 0.00 43 1020.4
20260502193929 76 10 0.9 5.2 0.00 0.01 0.00 45 1020.4
20260502193430 76 353 0.9 4.3 0.00 0.02 0.00 45 1020.5
20260502192929 75 348 1.7 6.1 0.00 0.03 0.00 48 1020.5
20260502192430 75 8 1.7 7.0 0.00 0.03 0.00 46 1020.6
20260502191429 74 349 0.9 5.2 0.00 0.04 0.00 50 1020.6
20260502190929 74 354 0.9 6.1 0.00 0.04 0.00 50 1020.6
20260502190429 74 16 0.9 6.1 0.00 0.04 0.00 49 1020.7
20260502185930 74 18 0.9 4.3 0.00 0.04 0.00 45 1020.8
20260502185429 74 3 1.7 5.2 0.00 0.04 0.00 51 1020.8
20260502184930 73 5 1.7 8.7 0.00 0.05 0.00 47 1021.0
20260502184429 74 18 0.9 8.7 0.00 0.05 0.00 46 1021.1
20260502183930 74 7 0.9 2.6 0.00 0.05 0.00 49 1021.1
20260502183429 74 336 0.9 3.5 0.00 0.05 0.00 51 1021.2
20260502181429 73 18 0.9 4.3 0.00 0.06 0.00 49 1021.6
20260502180931 73 4 1.7 4.3 0.00 0.06 0.00 47 1021.7
20260502180430 73 357 1.7 7.0 0.00 0.06 0.00 48 1021.8
20260502170431 71 2 0.9 5.2 0.00 0.07 0.00 56 1022.4
20260502162929 69 18 0.9 4.3 0.00 0.08 0.00 59 1022.6
20260502162430 69 6 0.9 4.3 0.00 0.08 0.00 61 1022.6
20260502161930 69 342 0.9 4.3 0.00 0.08 0.00 61 1022.6
20260502160930 68 331 0.9 7.0 0.00 0.08 0.00 60 1022.6
20260502160430 68 346 0.9 7.0 0.00 0.08 0.00 60 1022.4
20260502151930 66 353 0.9 5.2 0.00 0.10 0.00 69 1022.4
20260502151429 65 340 1.7 5.2 0.00 0.10 0.00 69 1022.4
20260502150930 65 328 1.7 7.0 0.00 0.10 0.00 69 1022.3
20260502130430 51 0 0.0 0.9 0.00 0.22 0.00 92 1021.4
20260502123429 49 0 0.0 0.9 0.00 0.22 0.00 92 1020.9
20260502122931 49 0 0.0 0.9 0.00 0.22 0.00 92 1020.8
20260502122430 49 0 0.0 0.9 0.00 0.22 0.00 92 1020.7
20260502121930 49 0 0.0 0.0 0.00 0.22 0.00 92 1020.7
20260502120930 48 0 0.0 1.7 0.00 0.23 0.00 92 1020.5
20260502120430 48 0 0.0 1.7 0.00 0.23 0.00 92 1020.4
20260502115930 48 0 0.0 2.6 0.00 0.23 0.00 92 1020.4
20260502115430 48 0 0.0 2.6 0.00 0.23 0.00 92 1020.3
20260502114931 48 0 0.0 2.6 0.00 0.23 0.00 92 1020.3
20260502114430 48 0 0.0 1.7 0.00 0.23 0.00 92 1020.2
20260502113929 48 0 0.0 1.7 0.00 0.24 0.00 92 1020.1
20260502113430 48 0 0.0 1.7 0.00 0.24 0.00 92 1020.1
20260502112930 48 0 0.0 1.7 0.00 0.24 0.00 92 1020.0
20260502111429 48 0 0.0 2.6 0.00 0.26 0.00 92 1019.7
20260502110931 48 0 0.0 1.7 0.00 0.26 0.00 92 1019.6
20260502105930 48 0 0.0 1.7 0.00 0.27 0.00 92 1019.4
20260502104930 49 0 0.0 2.6 0.00 0.28 0.00 92 1019.2
20260502104430 49 0 0.0 2.6 0.00 0.28 0.00 92 1019.3
20260502103930 49 0 0.0 0.9 0.00 0.29 0.00 92 1019.2
20260502102930 49 0 0.0 0.0 0.00 0.30 0.00 92 1019.1
20260502102430 49 0 0.0 0.0 0.00 0.30 0.00 92 1018.9
20260502101930 49 0 0.0 0.0 0.00 0.31 0.00 92 1018.9
20260502101429 49 0 0.0 0.0 0.00 0.31 0.00 92 1018.9
20260502100930 49 0 0.0 0.0 0.00 0.31 0.00 92 1019.1
20260502100430 50 0 0.0 0.0 0.00 0.31 0.00 92 1019.1
20260502091430 50 0 0.0 0.0 0.00 0.31 0.00 91 1018.8
20260502090930 50 0 0.0 0.0 0.00 0.31 0.00 92 1018.8
20260502090431 50 0 0.0 0.0 0.00 0.31 0.00 92 1018.9
20260502071430 52 0 0.0 0.0 0.00 0.32 0.00 91 1018.9
20260502070931 52 0 0.0 0.0 0.00 0.32 0.00 91 1018.8
20260502070431 52 0 0.0 0.0 0.00 0.32 0.00 91 1018.8
20260502065930 52 0 0.0 0.0 0.00 0.32 0.00 91 1018.9
20260502065430 52 0 0.0 0.0 0.00 0.32 0.00 90 1018.9
20260502064430 52 0 0.0 0.0 0.00 0.32 0.00 90 1018.9
20260502063931 52 0 0.0 0.0 0.00 0.32 0.00 90 1019.0
20260502063430 52 0 0.0 0.0 0.00 0.32 0.00 90 1019.1
20260502062930 52 0 0.0 0.0 0.00 0.32 0.00 90 1019.0
20260502062430 52 0 0.0 0.0 0.00 0.32 0.00 90 1018.9
20260502061430 53 0 0.0 0.0 0.00 0.32 0.00 90 1019.1
20260502060930 53 0 0.0 0.0 0.00 0.32 0.00 90 1019.0
20260502060430 53 0 0.0 0.0 0.00 0.32 0.00 89 1019.0
20260502055931 53 0 0.0 0.0 0.00 0.32 0.00 89 1019.0
20260502055431 53 0 0.0 0.0 0.00 0.32 0.00 89 1019.0
20260502054430 54 0 0.0 0.0 0.00 0.32 0.00 89 1018.9
20260502053931 54 0 0.0 0.0 0.00 0.32 0.00 89 1019.0
20260502052431 54 0 0.0 0.0 0.00 0.32 0.00 89 1018.9
20260502051930 54 0 0.0 0.0 0.00 0.32 0.00 89 1018.9
20260502051430 54 0 0.0 0.0 0.00 0.32 0.00 89 1018.9
20260502050430 54 0 0.0 0.0 0.00 0.32 0.00 89 1018.8
20260502045931 54 0 0.0 0.0 0.00 0.32 0.00 89 1018.8
20260502045431 54 0 0.0 0.0 0.00 0.32 0.32 89 1018.8
20260502044931 54 0 0.0 0.0 0.00 0.32 0.32 88 1018.8
20260502044430 54 0 0.0 0.0 0.00 0.32 0.32 88 1018.8
20260502043930 54 0 0.0 0.0 0.00 0.32 0.32 88 1018.8
20260502042930 54 0 0.0 0.0 0.00 0.32 0.32 88 1018.8
20260502042430 55 0 0.0 0.0 0.00 0.32 0.32 88 1018.7
20260502041930 55 0 0.0 0.0 0.00 0.32 0.32 88 1018.6
20260502041430 55 0 0.0 0.0 0.00 0.32 0.32 88 1018.6
20260502040930 55 0 0.0 0.0 0.00 0.32 0.32 87 1018.4
20260502040430 55 0 0.0 0.0 0.00 0.32 0.32 87 1018.3
20260502035431 55 0 0.0 0.0 0.00 0.32 0.32 86 1018.2
20260502034931 55 0 0.0 0.0 0.00 0.32 0.32 86 1018.2
20260502033430 56 0 0.0 0.0 0.00 0.36 0.32 86 1018.3
20260502032930 56 0 0.0 0.0 0.00 0.36 0.32 86 1018.4
20260502032431 56 0 0.0 0.0 0.00 0.36 0.32 86 1018.4
20260502031432 56 0 0.0 0.0 0.00 0.36 0.32 85 1018.5
20260502030432 56 0 0.0 0.0 0.00 0.36 0.32 85 1018.3
20260502025431 56 0 0.0 0.0 0.00 0.36 0.32 85 1018.2
20260502024930 56 0 0.0 0.0 0.00 0.36 0.32 85 1018.1
20260502024431 56 0 0.0 0.0 0.00 0.36 0.32 85 1018.1
20260502023431 57 0 0.0 0.0 0.00 0.36 0.32 84 1018.1
20260502022930 57 0 0.0 0.0 0.00 0.36 0.32 84 1018.0
20260502022432 57 0 0.0 1.7 0.00 0.36 0.32 84 1017.9
20260502021931 57 0 0.0 1.7 0.00 0.36 0.32 84 1017.8
20260502020930 57 0 0.0 0.9 0.00 0.36 0.32 84 1017.5
20260502015430 57 0 0.0 0.0 0.00 0.36 0.32 84 1016.9
20260502014930 57 0 0.0 0.0 0.00 0.36 0.32 84 1016.9
20260502014430 57 0 0.0 0.0 0.00 0.36 0.32 84 1016.9
20260502013931 57 0 0.0 0.0 0.00 0.36 0.32 84 1016.7
20260502013430 57 0 0.0 0.9 0.00 0.36 0.32 83 1016.7
20260502012931 57 0 0.0 3.5 0.00 0.36 0.32 83 1016.6
20260502012430 57 0 0.0 3.5 0.00 0.36 0.32 83 1016.6
20260502011931 57 0 0.0 1.7 0.00 0.36 0.32 83 1016.6
20260502011431 57 0 0.0 1.7 0.00 0.36 0.32 83 1016.5
20260502010431 58 0 0.0 3.5 0.00 0.36 0.32 84 1016.4
20260502005930 58 0 0.0 3.5 0.00 0.36 0.32 84 1016.3
20260502005432 58 0 0.0 2.6 0.00 0.36 0.32 84 1016.3
20260502004930 58 0 0.0 2.6 0.00 0.36 0.32 84 1016.1
20260502003931 58 0 0.0 0.9 0.00 0.36 0.32 84 1015.9
20260502003432 58 0 0.0 0.9 0.00 0.36 0.32 84 1016.0
20260502002932 58 0 0.0 0.9 0.00 0.36 0.32 84 1015.9
20260502002431 58 0 0.0 0.9 0.00 0.36 0.32 84 1015.8
20260502001931 58 0 0.0 0.0 0.00 0.36 0.32 84 1015.7